| time (UTC) | temp F | wind direction | speed knots | gust knots | rain 1hr in | rain 24hr in | rain mn in | humidity % | barometer mb |
| 20260504190534 | 75 | 226 | 6.1 | 13.9 | 0.00 | 0.00 | 0.00 | 99 | 1009.0 |
| 20260504185833 | 75 | 224 | 7.0 | 13.0 | 0.00 | 0.00 | 0.00 | 99 | 1009.0 |
| 20260504185133 | 75 | 214 | 7.0 | 13.0 | 0.00 | 0.00 | 0.00 | 99 | 1009.0 |
| 20260504184433 | 75 | 220 | 9.6 | 13.0 | 0.00 | 0.00 | 0.00 | 99 | 1009.0 |
| 20260504183733 | 74 | 231 | 4.3 | 9.6 | 0.00 | 0.00 | 0.00 | 99 | 1008.9 |
| 20260504183033 | 74 | 246 | 3.5 | 13.0 | 0.00 | 0.00 | 0.00 | 99 | 1008.9 |
| 20260504182333 | 77 | 224 | 6.1 | 9.6 | 0.00 | 0.00 | 0.00 | 99 | 1008.9 |
| 20260504181633 | 78 | 167 | 4.3 | 8.7 | 0.00 | 0.00 | 0.00 | 99 | 1008.9 |
| 20260504180933 | 76 | 192 | 4.3 | 8.7 | 0.00 | 0.00 | 0.00 | 99 | 1008.9 |
| 20260504180233 | 73 | 197 | 0.9 | 11.3 | 0.00 | 0.00 | 0.00 | 99 | 1008.9 |
| 20260504175533 | 73 | 226 | 7.8 | 11.3 | 0.00 | 0.00 | 0.00 | 99 | 1008.9 |
| 20260504174833 | 74 | 225 | 5.2 | 11.3 | 0.00 | 0.00 | 0.00 | 99 | 1008.9 |
| 20260504174215 | 75 | 195 | 4.3 | 10.4 | 0.00 | 0.00 | 0.00 | 99 | 1008.9 |
| 20260504173515 | 75 | 215 | 3.5 | 7.0 | 0.00 | 0.00 | 0.00 | 99 | 1009.0 |
| 20260504172815 | 74 | 96 | 0.0 | 3.5 | 0.00 | 0.00 | 0.00 | 99 | 1009.1 |
| 20260504172034 | 76 | 323 | 1.7 | 2.6 | 0.00 | 0.00 | 0.00 | 99 | 1009.1 |
| 20260504171333 | 76 | 147 | 0.9 | 5.2 | 0.00 | 0.00 | 0.00 | 99 | 1009.1 |
| 20260504170633 | 75 | 130 | 2.6 | 5.2 | 0.00 | 0.00 | 0.00 | 99 | 1009.1 |
| 20260504160333 | 67 | 13 | 4.3 | 7.8 | 0.00 | 0.00 | 0.00 | 97 | 1009.1 |
| 20260504150733 | 62 | 25 | 0.0 | 3.5 | 0.00 | 0.00 | 0.00 | 96 | 1009.3 |
| 20260504150115 | 62 | 26 | 0.9 | 2.6 | 0.00 | 0.00 | 0.00 | 96 | 1009.2 |
| 20260504141133 | 53 | 0.0 | 0.0 | 0.00 | 0.00 | 0.00 | 95 | 1009.0 | |
| 20260504140515 | 53 | 0.0 | 0.0 | 0.00 | 0.00 | 0.00 | 95 | 1008.9 | |
| 20260504130133 | 50 | 0.0 | 0.0 | 0.00 | 0.00 | 0.00 | 94 | 1008.5 | |
| 20260504110233 | 52 | 0.0 | 0.0 | 0.00 | 0.00 | 0.00 | 94 | 1008.6 | |
| 20260504081515 | 55 | 0.0 | 0.0 | 0.00 | 0.00 | 0.00 | 95 | 1008.1 | |
| 20260504080733 | 56 | 0.0 | 0.9 | 0.00 | 0.00 | 0.00 | 95 | 1008.1 | |
| 20260504080115 | 56 | 0.0 | 0.9 | 0.00 | 0.00 | 0.00 | 95 | 1008.1 | |
| 20260504060133 | 59 | 160 | 0.0 | 1.7 | 0.00 | 0.00 | 0.00 | 96 | 1008.0 |
| 20260504050532 | 58 | 194 | 0.9 | 3.5 | 0.00 | 0.00 | 0.00 | 96 | 1008.1 |
| 20260504045833 | 59 | 225 | 1.7 | 3.5 | 0.00 | 0.00 | 0.00 | 96 | 1008.2 |
| 20260504045132 | 59 | 213 | 1.7 | 3.5 | 0.00 | 0.00 | 0.00 | 96 | 1008.1 |
| 20260504044433 | 59 | 231 | 2.6 | 3.5 | 0.00 | 0.00 | 0.00 | 96 | 1008.1 |
| 20260504043732 | 59 | 217 | 0.9 | 3.5 | 0.00 | 0.00 | 0.00 | 96 | 1008.2 |
| 20260504043032 | 60 | 226 | 0.9 | 3.5 | 0.00 | 0.00 | 0.00 | 96 | 1008.2 |
| 20260504042332 | 60 | 227 | 0.9 | 4.3 | 0.00 | 0.00 | 0.00 | 96 | 1008.1 |
| 20260504041632 | 60 | 236 | 1.7 | 4.3 | 0.00 | 0.00 | 0.00 | 96 | 1008.1 |
| 20260504040933 | 60 | 233 | 1.7 | 5.2 | 0.00 | 0.00 | 0.00 | 96 | 1008.1 |
| 20260504040315 | 60 | 235 | 3.5 | 5.2 | 0.00 | 0.00 | 0.00 | 96 | 1008.1 |
| 20260504035615 | 60 | 230 | 1.7 | 3.5 | 0.00 | 0.00 | 0.00 | 96 | 1008.1 |
| 20260504034832 | 60 | 221 | 1.7 | 2.6 | 0.00 | 0.00 | 0.00 | 96 | 1008.1 |
| 20260504034132 | 61 | 219 | 0.9 | 3.5 | 0.00 | 0.00 | 0.00 | 96 | 1008.1 |
| 20260504033433 | 61 | 218 | 1.7 | 3.5 | 0.00 | 0.00 | 0.00 | 96 | 1008.1 |
| 20260504032733 | 62 | 208 | 0.9 | 1.7 | 0.00 | 0.00 | 0.00 | 96 | 1008.1 |
| 20260504032032 | 62 | 165 | 0.0 | 2.6 | 0.00 | 0.00 | 0.00 | 97 | 1008.1 |
| 20260504031332 | 63 | 209 | 0.9 | 2.6 | 0.00 | 0.00 | 0.00 | 97 | 1008.1 |
| 20260504030715 | 63 | 215 | 1.7 | 2.6 | 0.00 | 0.00 | 0.00 | 97 | 1008.1 |
| 20260504025932 | 64 | 187 | 0.0 | 3.5 | 0.00 | 0.00 | 0.00 | 97 | 1008.1 |
| 20260504025232 | 65 | 174 | 0.9 | 3.5 | 0.00 | 0.00 | 0.00 | 97 | 1008.0 |
| 20260504024532 | 65 | 203 | 2.6 | 7.0 | 0.00 | 0.00 | 0.00 | 97 | 1008.0 |
| 20260504023832 | 65 | 227 | 4.3 | 7.0 | 0.00 | 0.00 | 0.00 | 97 | 1008.0 |
| 20260504023132 | 65 | 225 | 4.3 | 6.1 | 0.00 | 0.00 | 0.00 | 97 | 1008.1 |
| 20260504022432 | 66 | 208 | 2.6 | 4.3 | 0.00 | 0.00 | 0.00 | 97 | 1008.1 |
| 20260504021732 | 66 | 221 | 1.7 | 5.2 | 0.00 | 0.00 | 0.00 | 97 | 1008.2 |
| 20260504021032 | 67 | 182 | 1.7 | 6.1 | 0.00 | 0.00 | 0.00 | 97 | 1008.3 |
| 20260504020332 | 68 | 203 | 1.7 | 7.8 | 0.00 | 0.00 | 0.00 | 98 | 1008.4 |
| 20260504015632 | 70 | 201 | 2.6 | 6.1 | 0.00 | 0.00 | 0.00 | 98 | 1008.4 |
| 20260504014933 | 72 | 208 | 4.3 | 7.0 | 0.00 | 0.00 | 0.00 | 98 | 1008.4 |
| 20260504014315 | 73 | 187 | 2.6 | 7.0 | 0.00 | 0.00 | 0.00 | 99 | 1008.4 |
| 20260504013532 | 75 | 175 | 1.7 | 6.1 | 0.00 | 0.00 | 0.00 | 99 | 1008.4 |
| 20260504012833 | 77 | 213 | 3.5 | 6.1 | 0.00 | 0.00 | 0.00 | 99 | 1008.5 |
| 20260504012132 | 77 | 237 | 2.6 | 6.1 | 0.00 | 0.00 | 0.00 | 99 | 1008.6 |
| 20260504011515 | 77 | 219 | 1.7 | 5.2 | 0.00 | 0.00 | 0.00 | 99 | 1008.7 |
| 20260504010732 | 78 | 277 | 0.9 | 8.7 | 0.00 | 0.00 | 0.00 | 99 | 1008.8 |
| 20260504010033 | 78 | 0.0 | 6.1 | 0.00 | 0.00 | 0.00 | 99 | 1008.9 | |
| 20260504005332 | 79 | 252 | 1.7 | 11.3 | 0.00 | 0.00 | 0.00 | 1009.0 | |
| 20260504004632 | 78 | 321 | 0.0 | 7.0 | 0.00 | 0.00 | 0.00 | 99 | 1009.0 |
| 20260504003933 | 79 | 348 | 3.5 | 8.7 | 0.00 | 0.00 | 0.00 | 99 | 1009.1 |
| 20260504003232 | 80 | 297 | 0.9 | 7.8 | 0.00 | 0.00 | 0.00 | 1009.2 | |
| 20260504002532 | 79 | 243 | 1.7 | 6.1 | 0.00 | 0.00 | 0.00 | 1009.3 | |
| 20260504001832 | 78 | 255 | 1.7 | 6.1 | 0.00 | 0.00 | 0.00 | 99 | 1009.3 |
| 20260504001215 | 79 | 298 | 1.7 | 9.6 | 0.00 | 0.00 | 0.00 | 1009.3 | |
| 20260504000432 | 79 | 291 | 0.9 | 7.8 | 0.00 | 0.00 | 0.00 | 1009.4 | |
| 20260503235732 | 80 | 310 | 1.7 | 7.8 | 0.00 | 0.00 | 0.00 | 1009.4 | |
| 20260503235032 | 80 | 275 | 2.6 | 8.7 | 0.00 | 0.00 | 0.00 | 1009.4 | |
| 20260503234332 | 80 | 311 | 0.9 | 4.3 | 0.00 | 0.00 | 0.00 | 1009.5 | |
| 20260503233632 | 81 | 269 | 1.7 | 7.0 | 0.00 | 0.00 | 0.00 | 1009.7 | |
| 20260503232932 | 80 | 259 | 2.6 | 6.1 | 0.00 | 0.00 | 0.00 | 1009.7 | |
| 20260503232233 | 79 | 275 | 1.7 | 9.6 | 0.00 | 0.00 | 0.00 | 1009.8 | |
| 20260503231615 | 79 | 245 | 6.1 | 9.6 | 0.00 | 0.00 | 0.00 | 99 | 1009.9 |
| 20260503230832 | 79 | 304 | 1.7 | 6.1 | 0.00 | 0.00 | 0.00 | 1010.0 | |
| 20260503230132 | 78 | 298 | 1.7 | 12.2 | 0.00 | 0.00 | 0.00 | 99 | 1010.1 |
| 20260503225515 | 78 | 348 | 5.2 | 9.6 | 0.00 | 0.00 | 0.00 | 99 | 1010.1 |
| 20260503224732 | 78 | 297 | 0.9 | 7.0 | 0.00 | 0.00 | 0.00 | 99 | 1010.2 |
| 20260503224032 | 77 | 334 | 3.5 | 7.8 | 0.00 | 0.00 | 0.00 | 99 | 1010.3 |
| 20260503223332 | 77 | 293 | 1.7 | 8.7 | 0.00 | 0.00 | 0.00 | 99 | 1010.4 |
| 20260503222632 | 77 | 345 | 6.1 | 9.6 | 0.00 | 0.00 | 0.00 | 99 | 1010.5 |
| 20260503221932 | 78 | 319 | 2.6 | 12.2 | 0.00 | 0.00 | 0.00 | 99 | 1010.6 |
| 20260503221233 | 78 | 327 | 4.3 | 7.8 | 0.00 | 0.00 | 0.00 | 99 | 1010.7 |
| 20260503220532 | 78 | 311 | 2.6 | 5.2 | 0.00 | 0.00 | 0.00 | 99 | 1010.7 |
| 20260503215832 | 78 | 298 | 1.7 | 7.8 | 0.00 | 0.00 | 0.00 | 99 | 1010.8 |
| 20260503215132 | 78 | 260 | 2.6 | 7.8 | 0.00 | 0.00 | 0.00 | 99 | 1010.9 |
| 20260503214433 | 78 | 317 | 1.7 | 12.2 | 0.00 | 0.00 | 0.00 | 99 | 1011.0 |
| 20260503213732 | 79 | 273 | 1.7 | 8.7 | 0.00 | 0.00 | 0.00 | 99 | 1011.1 |
| 20260503213033 | 79 | 342 | 3.5 | 10.4 | 0.00 | 0.00 | 0.00 | 1011.2 | |
| 20260503212332 | 78 | 260 | 1.7 | 9.6 | 0.00 | 0.00 | 0.00 | 99 | 1011.1 |
| 20260503211633 | 78 | 253 | 3.5 | 9.6 | 0.00 | 0.00 | 0.00 | 99 | 1011.2 |
| 20260503210933 | 79 | 334 | 2.6 | 5.2 | 0.00 | 0.00 | 0.00 | 99 | 1011.2 |
| 20260503210232 | 78 | 305 | 1.7 | 5.2 | 0.00 | 0.00 | 0.00 | 99 | 1011.4 |
| 20260503205532 | 78 | 248 | 1.7 | 6.1 | 0.00 | 0.00 | 0.00 | 99 | 1011.5 |
| 20260503204832 | 78 | 313 | 2.6 | 6.1 | 0.00 | 0.00 | 0.00 | 99 | 1011.6 |
| 20260503204132 | 76 | 312 | 1.7 | 8.7 | 0.00 | 0.00 | 0.00 | 99 | 1011.7 |
| 20260503203433 | 76 | 12 | 1.7 | 7.0 | 0.00 | 0.00 | 0.00 | 99 | 1011.7 |
| 20260503202733 | 74 | 309 | 1.7 | 4.3 | 0.00 | 0.00 | 0.00 | 99 | 1011.9 |
| 20260503202032 | 74 | 289 | 0.9 | 4.3 | 0.00 | 0.00 | 0.00 | 99 | 1012.0 |
| 20260503201332 | 74 | 294 | 1.7 | 12.2 | 0.00 | 0.00 | 0.00 | 99 | 1012.0 |
| 20260503200632 | 74 | 300 | 1.7 | 4.3 | 0.00 | 0.00 | 0.00 | 99 | 1012.1 |
| 20260503195933 | 74 | 295 | 2.6 | 7.0 | 0.00 | 0.00 | 0.00 | 99 | 1012.2 |
| 20260503195232 | 74 | 314 | 3.5 | 12.2 | 0.00 | 0.00 | 0.00 | 99 | 1012.3 |
| 20260503194532 | 73 | 298 | 1.7 | 7.8 | 0.00 | 0.00 | 0.00 | 99 | 1012.3 |
| 20260503193832 | 74 | 336 | 5.2 | 9.6 | 0.00 | 0.00 | 0.00 | 99 | 1012.3 |
| 20260503193132 | 75 | 296 | 3.5 | 14.8 | 0.00 | 0.00 | 0.00 | 99 | 1012.3 |
| 20260503192432 | 75 | 290 | 1.7 | 14.8 | 0.00 | 0.00 | 0.00 | 99 | 1012.3 |
| 20260503191733 | 75 | 275 | 4.3 | 15.6 | 0.00 | 0.00 | 0.00 | 99 | 1012.2 |
| 20260503191115 | 76 | 244 | 8.7 | 15.6 | 0.00 | 0.00 | 0.00 | 99 | 1012.3 |